EDW38 MROC-MRLB

Flight info

Callsign EDW38
Flight time 0h 24m
Altitude 14000
Route POAS4 TIO G440 LIB
Aircraft A359/H-SDE2E3GHIJ3J4J5LM1ORWXY/LB1D1

Departure

Time 2026-04-20 10:53
Airport Juan Santamaría International Airport (MROC)

Arrival

Time 2026-04-20 11:18
Airport Daniel Oduber Quirós International Airport (MRLB)
Time Latitude Longitude Altitude Speed Heading
2026-04-20 10:26 9.99859 -84.20092 3041 ft 0 kts 339°
2026-04-20 10:43 9.99848 -84.20088 3043 ft 4 kts 339°
2026-04-20 10:43 9.99828 -84.20081 3041 ft 4 kts 344°
2026-04-20 10:43 9.99802 -84.20077 3041 ft 4 kts 13°
2026-04-20 10:43 9.99785 -84.20088 3043 ft 3 kts 69°
2026-04-20 10:44 9.99776 -84.20113 3040 ft 4 kts 69°
2026-04-20 10:44 9.99766 -84.20139 3040 ft 3 kts 69°
2026-04-20 10:44 9.99765 -84.20142 3040 ft 0 kts 69°
2026-04-20 10:48 9.99766 -84.20140 3041 ft 3 kts 69°
2026-04-20 10:48 9.99795 -84.20056 3041 ft 16 kts 78°
2026-04-20 10:49 9.99741 -84.20009 3045 ft 10 kts 204°
2026-04-20 10:49 9.99693 -84.20079 3045 ft 18 kts 249°
2026-04-20 10:49 9.99629 -84.20247 3044 ft 32 kts 249°
2026-04-20 10:49 9.99582 -84.20408 3045 ft 10 kts 282°
2026-04-20 10:50 9.99636 -84.20463 3044 ft 12 kts 288°
2026-04-20 10:50 9.99600 -84.20586 3042 ft 25 kts 251°
2026-04-20 10:50 9.99524 -84.20789 3040 ft 34 kts 249°
2026-04-20 10:50 9.99436 -84.21021 3030 ft 40 kts 249°
2026-04-20 10:51 9.99332 -84.21300 3005 ft 29 kts 249°
2026-04-20 10:51 9.99256 -84.21504 2989 ft 35 kts 249°
2026-04-20 10:51 9.99162 -84.21754 2974 ft 40 kts 249°
2026-04-20 10:51 9.99097 -84.21976 2952 ft 29 kts 275°
2026-04-20 10:52 9.99069 -84.22163 2942 ft 29 kts 243°
2026-04-20 10:52 9.98944 -84.22186 2944 ft 18 kts 150°
2026-04-20 10:52 9.98934 -84.22105 2943 ft 11 kts 71°
2026-04-20 10:52 9.98968 -84.22016 2953 ft 22 kts 69°
2026-04-20 10:53 9.99081 -84.21707 2981 ft 82 kts 69°
2026-04-20 10:53 9.99365 -84.20945 3025 ft 146 kts 69°
2026-04-20 10:53 9.99758 -84.19880 3554 ft 162 kts 68°
2026-04-20 10:53 10.00172 -84.18835 4447 ft 163 kts 65°
2026-04-20 10:54 10.00649 -84.17707 4826 ft 185 kts 65°
2026-04-20 10:54 10.00949 -84.16345 5002 ft 213 kts 91°
2026-04-20 10:54 10.00350 -84.14928 5201 ft 241 kts 131°
2026-04-20 10:54 9.98818 -84.14066 5517 ft 265 kts 168°
2026-04-20 10:55 9.97001 -84.14272 6096 ft 274 kts 203°
2026-04-20 10:55 9.95540 -84.15495 6763 ft 279 kts 237°
2026-04-20 10:55 9.94948 -84.17354 7406 ft 282 kts 269°
2026-04-20 10:55 9.95436 -84.19267 8077 ft 283 kts 301°
2026-04-20 10:56 9.96511 -84.20947 8758 ft 286 kts 303°
2026-04-20 10:56 9.97445 -84.22738 9406 ft 289 kts 295°
2026-04-20 10:56 9.98383 -84.24560 10036 ft 293 kts 301°
2026-04-20 10:56 9.99415 -84.26397 10436 ft 307 kts 300°
2026-04-20 10:57 10.00483 -84.28339 10679 ft 323 kts 299°
2026-04-20 10:57 10.01560 -84.30398 10930 ft 338 kts 298°
2026-04-20 10:57 10.02639 -84.32562 11229 ft 349 kts 297°
2026-04-20 10:57 10.03718 -84.34801 11664 ft 355 kts 296°
2026-04-20 10:58 10.04793 -84.37074 12171 ft 359 kts 296°
2026-04-20 10:58 10.05875 -84.39375 12650 ft 363 kts 296°
2026-04-20 10:58 10.06950 -84.41664 13147 ft 365 kts 296°
2026-04-20 10:58 10.08045 -84.44006 13630 ft 368 kts 296°
2026-04-20 10:59 10.09144 -84.46364 13937 ft 371 kts 296°
2026-04-20 10:59 10.10277 -84.48794 13984 ft 394 kts 296°
2026-04-20 10:59 10.11484 -84.51380 13975 ft 411 kts 296°
2026-04-20 10:59 10.12701 -84.54029 13981 ft 415 kts 295°
2026-04-20 11:00 10.13907 -84.56692 13987 ft 415 kts 295°
2026-04-20 11:00 10.15107 -84.59354 13986 ft 415 kts 295°
2026-04-20 11:00 10.16326 -84.62015 13985 ft 415 kts 296°
2026-04-20 11:00 10.17567 -84.64668 13981 ft 415 kts 295°
2026-04-20 11:01 10.18796 -84.67330 13976 ft 415 kts 295°
2026-04-20 11:01 10.20024 -84.69987 13974 ft 415 kts 295°
2026-04-20 11:01 10.21247 -84.72642 13976 ft 416 kts 295°
2026-04-20 11:01 10.22470 -84.75299 13971 ft 416 kts 295°
2026-04-20 11:02 10.23669 -84.77892 13970 ft 416 kts 295°
2026-04-20 11:02 10.24900 -84.80548 13965 ft 416 kts 295°
2026-04-20 11:02 10.26119 -84.83167 13960 ft 416 kts 295°
2026-04-20 11:02 10.27350 -84.85811 13952 ft 416 kts 295°
2026-04-20 11:03 10.28591 -84.88475 13954 ft 416 kts 295°
2026-04-20 11:03 10.29822 -84.91123 13945 ft 416 kts 295°
2026-04-20 11:03 10.31057 -84.93779 13919 ft 416 kts 295°
2026-04-20 11:03 10.32295 -84.96438 13896 ft 416 kts 295°
2026-04-20 11:04 10.33517 -84.99065 13891 ft 416 kts 295°
2026-04-20 11:04 10.34714 -85.01641 13886 ft 416 kts 295°
2026-04-20 11:04 10.35947 -85.04299 13721 ft 411 kts 295°
2026-04-20 11:04 10.37147 -85.06890 13163 ft 400 kts 295°
2026-04-20 11:05 10.38314 -85.09420 12482 ft 393 kts 295°
2026-04-20 11:05 10.39469 -85.11921 11762 ft 387 kts 295°
2026-04-20 11:05 10.40607 -85.14379 11070 ft 381 kts 295°
2026-04-20 11:05 10.41714 -85.16766 10753 ft 365 kts 295°
2026-04-20 11:06 10.42768 -85.19017 10636 ft 335 kts 296°
2026-04-20 11:06 10.43706 -85.20990 10560 ft 302 kts 296°
2026-04-20 11:06 10.44603 -85.22887 10461 ft 287 kts 296°
2026-04-20 11:06 10.45439 -85.24669 10352 ft 282 kts 296°
2026-04-20 11:07 10.46279 -85.26466 10229 ft 282 kts 296°
2026-04-20 11:07 10.47122 -85.28273 10105 ft 282 kts 296°
2026-04-20 11:07 10.47956 -85.30070 9774 ft 281 kts 296°
2026-04-20 11:07 10.48812 -85.31915 9478 ft 296 kts 296°
2026-04-20 11:08 10.49697 -85.33831 9310 ft 299 kts 296°
2026-04-20 11:08 10.50566 -85.35717 8798 ft 298 kts 296°
2026-04-20 11:08 10.51447 -85.37626 8345 ft 297 kts 296°
2026-04-20 11:08 10.52312 -85.39501 7976 ft 296 kts 297°
2026-04-20 11:09 10.53189 -85.41398 7608 ft 294 kts 296°
2026-04-20 11:09 10.54055 -85.43271 7253 ft 292 kts 296°
2026-04-20 11:09 10.54913 -85.45132 6903 ft 290 kts 296°
2026-04-20 11:09 10.55469 -85.47077 6584 ft 292 kts 274°
2026-04-20 11:10 10.55237 -85.49129 6259 ft 291 kts 256°
2026-04-20 11:10 10.54726 -85.51119 5928 ft 292 kts 254°
2026-04-20 11:10 10.54181 -85.53104 5601 ft 291 kts 254°
2026-04-20 11:10 10.53581 -85.55057 5249 ft 289 kts 249°
2026-04-20 11:11 10.52851 -85.56947 4854 ft 286 kts 247°
2026-04-20 11:11 10.52106 -85.58814 4451 ft 283 kts 247°
2026-04-20 11:11 10.51372 -85.60655 4052 ft 280 kts 247°
2026-04-20 11:11 10.50649 -85.62476 3655 ft 277 kts 247°
2026-04-20 11:12 10.49938 -85.64281 3257 ft 272 kts 247°
2026-04-20 11:12 10.49258 -85.66023 2937 ft 264 kts 247°
2026-04-20 11:12 10.48599 -85.67728 2861 ft 246 kts 247°
2026-04-20 11:12 10.48182 -85.69316 2862 ft 229 kts 262°
2026-04-20 11:13 10.48257 -85.70896 2862 ft 216 kts 283°
2026-04-20 11:13 10.49039 -85.72118 2884 ft 210 kts 324°
2026-04-20 11:13 10.50414 -85.72480 2865 ft 209 kts
2026-04-20 11:13 10.51706 -85.71829 2869 ft 210 kts 40°
2026-04-20 11:14 10.52778 -85.70816 2851 ft 212 kts 47°
2026-04-20 11:14 10.53545 -85.69588 2874 ft 198 kts 66°
2026-04-20 11:14 10.54026 -85.68310 2868 ft 192 kts 70°
2026-04-20 11:14 10.54481 -85.67034 2854 ft 191 kts 69°
2026-04-20 11:15 10.54947 -85.65771 2851 ft 191 kts 69°
2026-04-20 11:15 10.55439 -85.64518 2686 ft 189 kts 66°
2026-04-20 11:15 10.55964 -85.63299 2333 ft 188 kts 65°
2026-04-20 11:15 10.56532 -85.62099 1898 ft 192 kts 63°
2026-04-20 11:16 10.57088 -85.60876 1515 ft 186 kts 66°
2026-04-20 11:16 10.57602 -85.59727 1247 ft 171 kts 68°
2026-04-20 11:16 10.57961 -85.58617 999 ft 160 kts 71°
2026-04-20 11:16 10.58268 -85.57569 747 ft 151 kts 75°
2026-04-20 11:17 10.58566 -85.56582 531 ft 140 kts 69°
2026-04-20 11:17 10.58902 -85.55667 351 ft 137 kts 70°
2026-04-20 11:17 10.59215 -85.54792 285 ft 123 kts 70°
2026-04-20 11:17 10.59463 -85.54099 286 ft 87 kts 70°
2026-04-20 11:18 10.59633 -85.53623 290 ft 62 kts 70°
2026-04-20 11:18 10.59739 -85.53330 285 ft 17 kts 64°
2026-04-20 11:18 10.59828 -85.53310 286 ft 12 kts 345°
2026-04-20 11:18 10.59917 -85.53343 287 ft 15 kts 336°
2026-04-20 11:19 10.59936 -85.53422 287 ft 13 kts 249°
2026-04-20 11:19 10.59908 -85.53498 287 ft 8 kts 249°
2026-04-20 11:19 10.59918 -85.53539 287 ft 6 kts 322°
2026-04-20 11:19 10.59960 -85.53557 287 ft 4 kts 339°
2026-04-20 11:20 10.59974 -85.53563 291 ft 1 kts 339°
2026-04-20 11:20 10.59983 -85.53566 287 ft 0 kts 340°